Location: Unspecified
(37.5808°N, 0.0000°E)
Time: 01:48:49
(UTC+00:00)

Transit 4A - All Passes

Search period start: 04 April 2026 00:00
Search period end: 14 April 2026 00:00
Orbit: 863 x 978 km, 66.8° (Epoch: 29 March)

Date Brightness Start Highest point End Pass type
(mag) Time Alt. Az. Time Alt. Az. Time Alt. Az.
4 Apr - 01:49:42 10° NNW 01:55:45 43° NE 02:01:47 10° SE visible
4 Apr - 03:36:22 10° NW 03:41:54 32° WSW 03:47:24 10° SSW visible
4 Apr - 16:53:50 10° SSW 16:59:46 80° ESE 17:05:55 10° NNE daylight
4 Apr - 18:42:45 10° W 18:46:50 18° NW 18:51:00 10° N visible
5 Apr - 00:14:23 10° NNE 00:16:58 12° NE 00:19:33 10° ENE visible
5 Apr - 01:58:17 10° NNW 02:04:37 62° ENE 02:10:55 10° SE visible
5 Apr - 03:45:49 10° WNW 03:50:24 21° WSW 03:54:58 10° SSW visible
5 Apr - 15:19:27 10° SE 15:22:56 16° ESE 15:26:29 10° ENE daylight
5 Apr - 17:02:35 10° SW 17:08:31 70° WNW 17:14:39 10° NNE daylight
5 Apr - 18:53:14 10° WNW 18:56:01 13° NW 18:58:51 10° NNW visible
6 Apr - 00:22:06 10° N 00:26:11 17° NE 00:30:15 10° E visible
6 Apr - 02:06:58 10° NNW 02:13:24 88° ENE 02:19:48 10° SSE visible
6 Apr - 03:56:02 10° WNW 03:58:50 13° W 04:01:39 10° SW night (unlit)
6 Apr - 15:26:40 10° SSE 15:31:24 25° ESE 15:36:15 10° NE daylight
6 Apr - 17:11:36 10° SW 17:17:20 47° WNW 17:23:17 10° NNE daylight
7 Apr - 00:30:15 10° N 00:35:18 24° NE 00:40:20 10° E visible
7 Apr - 02:15:47 10° NW 02:22:07 64° WSW 02:28:23 10° SSE visible
7 Apr - 15:34:29 10° S 15:39:55 38° ESE 15:45:31 10° NE daylight
7 Apr - 17:20:54 10° WSW 17:26:15 33° NW 17:31:47 10° N daylight
8 Apr - 00:38:37 10° N 00:44:19 33° NE 00:50:00 10° ESE visible
8 Apr - 02:24:45 10° NW 02:30:44 43° WSW 02:36:41 10° S visible
8 Apr - 15:42:42 10° S 15:48:31 59° ESE 15:54:32 10° NE daylight
8 Apr - 17:30:31 10° W 17:35:16 24° NW 17:40:09 10° N daylight
9 Apr - 00:47:06 10° NNW 00:53:14 47° ENE 00:59:22 10° SE visible
9 Apr - 02:33:57 10° NW 02:39:18 29° WSW 02:44:37 10° SSW visible
9 Apr - 14:10:25 10° ESE 14:11:54 11° E 14:13:23 10° E daylight
9 Apr - 15:51:14 10° SSW 15:57:12 88° ESE 16:03:23 10° NNE daylight
9 Apr - 17:40:32 10° W 17:44:22 17° NW 17:48:18 10° N daylight
9 Apr - 23:11:30 10° NNE 23:14:33 14° NE 23:17:35 10° ENE visible
10 Apr - 00:55:43 10° NNW 01:02:05 67° ENE 01:08:26 10° SE visible
10 Apr - 02:43:32 10° WNW 02:47:47 19° WSW 02:52:02 10° SW visible
10 Apr - 14:16:25 10° SE 14:20:18 18° ESE 14:24:16 10° ENE daylight
10 Apr - 16:00:03 10° SW 16:05:58 64° WNW 16:12:06 10° NNE daylight
10 Apr - 17:51:12 10° WNW 17:53:35 12° NW 17:56:00 10° NNW daylight
10 Apr - 23:19:22 10° N 23:23:44 19° NE 23:28:05 10° E visible
11 Apr - 01:04:25 10° NNW 01:10:51 85° WSW 01:17:14 10° SSE visible
11 Apr - 02:54:11 10° W 02:56:12 12° W 02:58:14 10° WSW night (unlit)
11 Apr - 14:23:49 10° SSE 14:28:46 28° ESE 14:33:51 10° NE daylight
11 Apr - 16:09:08 10° SW 16:14:48 43° NW 16:20:41 10° NNE daylight
11 Apr - 23:27:36 10° N 23:32:49 26° NE 23:38:03 10° ESE visible
12 Apr - 01:13:17 10° NW 01:19:33 58° WSW 01:25:45 10° S visible
12 Apr - 14:31:45 10° S 14:37:19 43° ESE 14:43:03 10° NE daylight
12 Apr - 16:18:31 10° WSW 16:23:45 30° NW 16:29:10 10° N daylight
12 Apr - 23:35:59 10° NNW 23:41:49 36° NE 23:47:38 10° ESE visible
13 Apr - 01:22:18 10° NW 01:28:09 39° WSW 01:33:58 10° S visible
13 Apr - 14:40:03 10° SSW 14:45:56 65° ESE 14:52:02 10° NNE daylight
13 Apr - 16:28:12 10° W 16:32:47 22° NW 16:37:29 10° N daylight
13 Apr - 22:01:41 10° NNE 22:02:50 10° NE 22:04:00 10° NE visible
13 Apr - 23:44:30 10° NNW 23:50:43 51° ENE 23:56:55 10° SE visible
